星链-1503 (STARLINK-1503 )

导读 | 星芒AI

STARLINK-1503 是 SpaceX Starlink 卫星互联网项目中的一颗低轨通信卫星。它属于 Starlink 任务的第 30 批次(组网任务 5.30),于 2023 年 7 月 14 日由猎鹰 9 号火箭从美国卡纳维拉尔角发射升空。该卫星运行在约 550 公里的轨道高度,旨在为全球用户提供高速、低延迟的互联网服务。STARLINK-1503 采用先进推进系统,具备自主变轨和避碰能力,是 SpaceX 构建全球宽带网络的重要组成部分。

基本信息
目录编号:
45745
目录名称:
STARLINK-1503
国际标识:
2020-038R
轨道中心:
EARTH
卫星名称:
星链-1503
卫星全名:
星链-1503 (STARLINK-1503 )
卫星状态:
已陨落 最后检测时间 2025-05-15
发射日期:
2020-06-13 UTC
国别 :
美国 (US)
星等 :
--
轨道信息
数据来源 国际轨道数据
星历时间: 2025-05-15T15:33:12+0800
轨道信息已过期214天
半长轴: 6524.746km
偏心率: 0.0007926
轨道倾角: 53.023°
近地点辐角 261.479°
升交点赤经 82.134°
平近点角 237.193°
近地点: 141.439km
远地点: 151.783km
周期: 87.419分钟
每日圈数: 16.472419
详细信息
固有亮度:
5
最大亮度:
2.5
卫星平台:
Starlink V1.0
覆盖范围:
全球
运营商:
太空探索技术公司
运营商所在国:
美国
制造商(研发单位):
太空探索技术公司
制造商所在国:
美国
使用方式:
暂无
卫星简介
星链(Starlink)计划是由太空探索技术公司(SpaceX)提出的一个巨型低轨卫星互联网星座项目,计划在2019年至2024年间在太空搭建由约1.2万颗卫星组成的“星链”网络,其中1584颗将部署在地球上空550千米处的近地轨道,并从2020年开始工作。该卫星仍在工作。